SHIJIAN 6 02B (SJ-6 02B)

Satellite information

Favourite Embed

Satellite Type and Status

PAYLOADIN ORBIT

Key statistics

Satellite SHIJIAN 6 02B (SJ-6 02B) at a glance.

Uptime

6943

Days in orbit

Revolutions

≈ 15.0

Per day

Orbit

SSO

Sun Synchronous Orbit

Inclination

97.7

Latest

Satellite identification and parameters

Extended collection of information and parameters for SHIJIAN 6 02B (SJ-6 02B).

Object identification

Identified? True

Debris? False

Object name: SHIJIAN 6 02B (SJ-6 02B)

International designator: 2006-046B

Object number (NORAD): 29506

Object ID (CCSDS): 29506

Country: PEOPLES REPUBLIC OF CHINA (PRC)

Current information (Y/N): Y

RCS size: LARGE

Orbital parameters

Period: 95.981 minutes

Inclination: 97.6907 deg

SMA: 6944.13 km

Apoapsis: 575.456 km

Periapsis: 556.533 km

RAAN: 324.1531 deg

Eccentricy: 0.00136248

Argument of periapsis: 121.8652 deg

Mean anomaly: 238.3899 deg

Mean motion: 15.00292812 rev/day

Mean motion (dot): 0.00001959 rev/day2

B* drag term: 0.00016087083 1/REarth

Two-line elements (TLE)

Creation date: Oct. 25, 2025, 3:11 a.m.

Reference frame: TEME

Reference center: EARTH

Epoch: Oct. 25, 2025, 12:05 a.m. UTC

TLE line 0: 0 SHIJIAN 6 02B (SJ-6 02B)

TLE line 1: 1 29506U 06046B 25298.00408363 .00001959 00000-0 16087-3 0 9997

TLE line 2: 2 29506 97.6907 324.1531 0013625 121.8652 238.3899 15.00292812 35463

Live tracking on map

Real-time ground track for satellite SHIJIAN 6 02B (SJ-6 02B).

In-orbit conjunctions

There are no conjunctions computed for SHIJIAN 6 02B (SJ-6 02B), at the moment. Check back to stay up to date, as we update our databases every day.

Go to all conjunctions

Associated space launch

It was announced that the two satellites had a design life of at least two years, and would be used to probe the space environment, radiation and its effects, record space physical environment parameters, and conduct other related space experiments.

SHIJIAN 6 02B (SJ-6 02B) was lifted into orbit during the mission ‘Long March 4B | Shi Jian 6C & 6D’, on board a Long March 4B space rocket.

The launch took place on Oct. 23, 2006, 11:34 p.m. from Launch Complex 7.

For more information about the launch, click the button.

Launch to space Long March 4B | Shi Jian 6C & 6D
Long March 4B | Shi Jian 6C & 6D

Agency: N/A

Status: Launch Successful

Launch date: Oct. 23, 2006, 11:34 p.m. UTC

Rocket: Long March 4B

Launch pad: Launch Complex 7

Location: Taiyuan Satellite Launch Center, People's Republic of China

...

Latest news about this satellite

There are no fresh news available about this satellite. Check back as we update our databases every day.


Newsletter sign-up

Weekly statistics, charts and insights to help you stay on top of the space industry.